Location: Beadle
(51.4667°N, 109.0000°W)
Time: 08:01:50
(UTC+00:00)

SEEDS - Pass Details

Date: 04 July 2022
Orbit: 580 x 598 km, 97.6° (Epoch: 10 August)

Event Time Altitude Azimuth Distance (km) Brightness Sun altitude
Rises 10:08:47 0° 32° (NNE) 2,815 ? -7.0°
Reaches altitude 10° 10:12:33 10° 68° (ENE) 1,905 ? -6.7°
Maximum altitude 10:13:49 11° 86° (E) 1,824 ? -6.5°
Drops below altitude 10° 10:15:06 10° 104° (ESE) 1,899 ? -6.4°
Sets 10:18:49 0° 139° (SE) 2,790 ? -6.0°
